Terug naar catalogus

BREEZE-M DEB

TANK

ActiefHEO
NORAD 39165·DEBRIS·🇷🇺 Russia

Gelanceerd May 14, 2013 vanaf Baikonur Cosmodrome

Loading…

Volgende Passages (komende 24 uur)

TLE

VersSource: Space-Track

Epoch: Sep 14, 2026, 07:28 UTC

1 39165U 13022C   26257.31134138  .00001323  00000-0  48668-3 0  9992
2 39165  49.4878 235.4930 5542613 142.7536 273.1098  4.70521439221578

Volg BREEZE-M DEB in realtime met AllMySat

Download on the App Store